Location: Allie Creek
(37.5926°N, 89.8526°W)
Time: 23:53:35
(UTC+00:00)

SL-16 R/B - Pass Details

Date: 24 April 2024
Orbit: 841 x 845 km, 71.0° (Epoch: 28 May)

Event Time Altitude Azimuth Distance (km) Brightness Sun altitude
Exits shadow 04:56:48 32° 340° (NNW) 1,424 3.8 -37.4°
Drops below altitude 10° 05:00:17 10° 8° (N) 2,470 5.2 -37.6°
Sets 05:02:54 0° 16° (NNE) 3,409 6.0 -37.8°
